Location: Casteau
(50.5142°N, 4.0161°E)
Time: 04:27:11
(UTC+00:00)

Altair - All Passes

Search period start: 06 August 2021 00:00
Search period end: 16 August 2021 00:00
Orbit: 1502 x 1682 km, 47.2° (Epoch: 05 August)

Date Brightness Start Highest point End Pass type
(mag) Time Alt. Az. Time Alt. Az. Time Alt. Az.
06 Aug - 01:56:06 10° WSW 02:05:28 70° S 02:14:34 10° E visible
06 Aug - 04:00:34 10° W 04:09:46 68° SSW 04:18:49 10° ESE daylight
06 Aug - 06:05:15 10° W 06:13:29 38° SW 06:21:40 10° SSE daylight
06 Aug - 08:13:11 10° WSW 08:15:57 12° SW 08:18:44 10° SW daylight
06 Aug - 21:30:00 10° SSE 21:33:51 13° SE 21:37:39 10° E visible
06 Aug - 23:27:51 10° SSW 23:36:30 40° SE 23:44:53 10° E visible
07 Aug - 01:30:57 10° WSW 01:40:19 69° SSE 01:49:26 10° E visible
07 Aug - 03:35:23 10° W 03:44:38 70° SSW 03:53:43 10° ESE visible
07 Aug - 05:40:02 10° W 05:48:25 41° SW 05:56:44 10° SSE daylight
07 Aug - 07:47:11 10° W 07:50:59 13° SW 07:54:46 10° SSW daylight
07 Aug - 21:06:03 10° SE 21:08:52 12° ESE 21:11:39 10° ESE visible
07 Aug - 23:02:52 10° SSW 23:11:25 38° SE 23:19:42 10° E visible
08 Aug - 01:05:47 10° WSW 01:15:10 67° SSE 01:24:17 10° E visible
08 Aug - 03:10:12 10° W 03:19:30 71° S 03:28:36 10° ESE visible
08 Aug - 05:14:51 10° W 05:23:21 43° SSW 05:31:47 10° SE daylight
08 Aug - 07:21:28 10° W 07:26:00 15° SW 07:30:33 10° SSW daylight
08 Aug - 20:43:17 10° SE 20:43:54 10° ESE 20:44:30 10° ESE visible
08 Aug - 22:37:55 10° SSW 22:46:21 36° SE 22:54:31 10° E visible
09 Aug - 00:40:38 10° WSW 00:50:02 66° SSE 00:59:09 10° E visible
09 Aug - 02:45:01 10° W 02:54:21 72° S 03:03:29 10° ESE visible
09 Aug - 04:49:39 10° W 04:58:17 45° SSW 05:06:48 10° SE daylight
09 Aug - 06:55:53 10° W 07:01:01 16° SW 07:06:10 10° SSW daylight
09 Aug - 22:13:01 10° SSW 22:21:17 33° SE 22:29:19 10° E visible
10 Aug - 00:15:29 10° WSW 00:24:54 64° SSE 00:34:00 10° E visible
10 Aug - 02:19:50 10° W 02:29:13 73° S 02:38:21 10° ESE visible
10 Aug - 04:24:28 10° W 04:33:12 48° SSW 04:41:49 10° SE daylight
10 Aug - 06:30:23 10° W 06:36:02 18° SW 06:41:41 10° SSW daylight
10 Aug - 21:48:06 10° SSW 21:56:13 31° SE 22:04:06 10° E visible
10 Aug - 23:50:21 10° WSW 23:59:46 62° SSE 00:08:51 10° E visible
11 Aug - 01:54:39 10° W 02:04:04 73° S 02:13:13 10° ESE visible
11 Aug - 03:59:16 10° W 04:08:06 50° SSW 04:16:48 10° SE daylight
11 Aug - 06:04:57 10° W 06:11:03 20° SW 06:17:07 10° S daylight
11 Aug - 21:23:14 10° SSW 21:31:10 29° SE 21:38:51 10° E visible
11 Aug - 23:25:13 10° SW 23:34:38 60° SSE 23:43:43 10° E visible
12 Aug - 01:29:27 10° W 01:38:55 74° S 01:48:05 10° E visible
12 Aug - 03:34:04 10° W 03:43:01 53° SSW 03:51:47 10° SE visible
12 Aug - 05:39:34 10° W 05:46:03 22° SW 05:52:29 10° S daylight
12 Aug - 20:58:23 10° S 21:06:07 27° SE 21:13:36 10° E visible
12 Aug - 23:00:06 10° SW 23:09:30 58° SSE 23:18:35 10° E visible
13 Aug - 01:04:16 10° W 01:13:46 74° S 01:22:57 10° E visible
13 Aug - 03:08:53 10° W 03:17:55 55° SSW 03:26:45 10° SE visible
13 Aug - 05:14:13 10° W 05:21:02 24° SW 05:27:49 10° S daylight
13 Aug - 20:33:36 10° S 20:41:04 25° SE 20:48:20 10° E visible
13 Aug - 22:34:59 10° SW 22:44:23 56° SSE 22:53:26 10° E visible
14 Aug - 00:39:04 10° W 00:48:37 74° S 00:57:49 10° E visible
14 Aug - 02:43:42 10° W 02:52:49 57° SSW 03:01:42 10° SE visible
14 Aug - 04:48:53 10° W 04:56:01 26° SW 05:03:05 10° S daylight
14 Aug - 20:08:50 10° S 20:16:01 24° SE 20:23:02 10° E visible
14 Aug - 22:09:54 10° SW 22:19:15 54° SSE 22:28:17 10° E visible
15 Aug - 00:13:52 10° W 00:23:27 74° S 00:32:41 10° E visible
15 Aug - 02:18:30 10° W 02:27:42 59° SSW 02:36:39 10° SE visible
15 Aug - 04:23:35 10° W 04:31:00 28° SW 04:38:19 10° S daylight
15 Aug - 19:44:06 10° S 19:50:59 22° SE 19:57:42 10° E visible
15 Aug - 21:44:48 10° SW 21:54:08 52° SSE 22:03:08 10° E visible
